Location: Newark
(34.6283°N, 36.0776°E)
Time: 19:09:38
(UTC+00:00)

Tiros 1 despin weight - Pass Details

Date: 26 September 2019
Orbit: 594 x 643 km, 48.2° (Epoch: 15 October)

Event Time Altitude Azimuth Distance (km) Brightness Sun altitude
Rises 12:23:14 0° 313° (NW) 2,867 ? 35.4°
Reaches altitude 10° 12:25:51 10° 326° (NW) 1,953 ? 34.9°
Maximum altitude 12:29:39 26° 23° (NNE) 1,184 ? 34.3°
Drops below altitude 10° 12:33:23 10° 81° (E) 1,928 ? 33.6°
Sets 12:35:57 0° 94° (E) 2,824 ? 33.1°
